TimeMST,TemperatureF,Dew PointF,Humidity,Sea Level PressureIn,VisibilityMPH,Wind Direction,Wind SpeedMPH,Gust SpeedMPH,PrecipitationIn,Events,Conditions,WindDirDegrees,DateUTC
12:15 AM,32.0,21.2,64,29.89,10.0,SE,9.2,-,N/A,,Clear,140,2012-12-08 07:15:00
12:35 AM,30.2,21.2,69,29.87,10.0,SE,10.4,-,N/A,,Clear,130,2012-12-08 07:35:00
12:55 AM,30.2,23.0,75,29.86,10.0,ESE,11.5,-,N/A,,Partly Cloudy,120,2012-12-08 07:55:00
1:15 AM,30.2,23.0,75,29.86,10.0,East,9.2,-,N/A,,Clear,100,2012-12-08 08:15:00
1:35 AM,28.4,21.2,74,29.86,10.0,East,6.9,-,N/A,,Clear,80,2012-12-08 08:35:00
1:55 AM,26.6,21.2,80,29.85,10.0,East,8.1,-,N/A,,Partly Cloudy,90,2012-12-08 08:55:00
2:15 AM,26.6,21.2,80,29.85,10.0,ENE,5.8,-,N/A,,Scattered Clouds,70,2012-12-08 09:15:00
2:35 AM,28.4,21.2,74,29.84,10.0,East,8.1,-,N/A,,Mostly Cloudy,90,2012-12-08 09:35:00
2:55 AM,28.4,21.2,74,29.82,10.0,ESE,8.1,-,N/A,,Partly Cloudy,120,2012-12-08 09:55:00
3:15 AM,26.6,21.2,80,29.82,10.0,ENE,5.8,-,N/A,,Partly Cloudy,70,2012-12-08 10:15:00
3:35 AM,24.8,19.4,80,29.80,10.0,ENE,6.9,-,N/A,,Partly Cloudy,70,2012-12-08 10:35:00
3:55 AM,21.2,15.8,80,29.79,10.0,West,6.9,-,N/A,,Clear,280,2012-12-08 10:55:00
4:15 AM,21.2,17.6,86,29.79,10.0,NW,4.6,-,N/A,,Clear,320,2012-12-08 11:15:00
4:35 AM,23.0,19.4,86,29.78,10.0,Calm,Calm,-,N/A,,Clear,0,2012-12-08 11:35:00
4:55 AM,21.2,17.6,86,29.77,10.0,NE,3.5,-,N/A,,Clear,40,2012-12-08 11:55:00
5:15 AM,24.8,21.2,86,29.76,10.0,NE,5.8,-,N/A,,Clear,40,2012-12-08 12:15:00
5:35 AM,24.8,21.2,86,29.76,10.0,NNE,3.5,-,N/A,,Clear,30,2012-12-08 12:35:00
5:55 AM,24.8,21.2,86,29.74,10.0,NE,6.9,-,N/A,,Clear,40,2012-12-08 12:55:00
6:15 AM,23.0,19.4,86,29.75,10.0,North,4.6,-,N/A,,Clear,360,2012-12-08 13:15:00
6:35 AM,21.2,17.6,86,29.75,10.0,Calm,Calm,-,N/A,,Clear,0,2012-12-08 13:35:00
6:55 AM,21.2,17.6,86,29.75,10.0,Calm,Calm,-,N/A,,Clear,0,2012-12-08 13:55:00
7:15 AM,21.2,17.6,86,29.74,10.0,NNW,3.5,-,N/A,,Clear,330,2012-12-08 14:15:00
7:35 AM,19.4,17.6,93,29.74,10.0,Calm,Calm,-,N/A,,Clear,0,2012-12-08 14:35:00
7:55 AM,23.0,19.4,86,29.74,10.0,Calm,Calm,-,N/A,,Clear,0,2012-12-08 14:55:00
8:15 AM,24.8,21.2,86,29.74,10.0,Calm,Calm,-,N/A,,Clear,0,2012-12-08 15:15:00
8:35 AM,24.8,21.2,86,29.72,10.0,ENE,4.6,-,N/A,,Clear,60,2012-12-08 15:35:00
8:55 AM,26.6,24.8,93,29.72,10.0,Calm,Calm,-,N/A,,Clear,0,2012-12-08 15:55:00
9:15 AM,28.4,24.8,86,29.72,10.0,South,3.5,-,N/A,,Clear,190,2012-12-08 16:15:00
9:35 AM,30.2,24.8,80,29.72,10.0,Calm,Calm,-,N/A,,Clear,0,2012-12-08 16:35:00
9:55 AM,32.0,24.8,75,29.72,10.0,SSW,4.6,-,N/A,,Clear,210,2012-12-08 16:55:00
10:15 AM,35.6,24.8,65,29.71,10.0,SSE,8.1,-,N/A,,Clear,160,2012-12-08 17:15:00
10:35 AM,37.4,26.6,65,29.71,10.0,ESE,6.9,-,N/A,,Clear,120,2012-12-08 17:35:00
10:55 AM,39.2,26.6,61,29.69,10.0,East,5.8,-,N/A,,Clear,100,2012-12-08 17:55:00
11:15 AM,42.8,26.6,53,29.68,10.0,East,5.8,-,N/A,,Clear,90,2012-12-08 18:15:00
11:35 AM,44.6,26.6,49,29.67,10.0,ENE,9.2,-,N/A,,Scattered Clouds,60,2012-12-08 18:35:00
11:55 AM,46.4,26.6,46,29.67,10.0,East,9.2,-,N/A,,Mostly Cloudy,80,2012-12-08 18:55:00
12:15 PM,42.8,24.8,49,29.66,10.0,NNE,11.5,-,N/A,,Overcast,30,2012-12-08 19:15:00
12:35 PM,42.8,24.8,49,29.65,10.0,NE,5.8,-,N/A,,Mostly Cloudy,50,2012-12-08 19:35:00
12:55 PM,44.6,23.0,43,29.65,10.0,West,4.6,-,N/A,,Mostly Cloudy,270,2012-12-08 19:55:00
1:35 PM,44.6,21.2,39,29.66,10.0,NW,13.8,19.6,N/A,,Overcast,310,2012-12-08 20:35:00
1:55 PM,44.6,21.2,39,29.65,10.0,WNW,10.4,-,N/A,,Overcast,300,2012-12-08 20:55:00
2:15 PM,44.6,21.2,39,29.64,10.0,North,10.4,-,N/A,,Mostly Cloudy,10,2012-12-08 21:15:00
2:35 PM,39.2,23.0,52,29.65,10.0,North,16.1,26.5,N/A,,Mostly Cloudy,360,2012-12-08 21:35:00
2:55 PM,37.4,23.0,56,29.67,10.0,North,13.8,-,N/A,,Overcast,360,2012-12-08 21:55:00
3:15 PM,37.4,23.0,56,29.68,10.0,NNW,16.1,-,N/A,,Mostly Cloudy,340,2012-12-08 22:15:00
3:35 PM,37.4,21.2,52,29.70,10.0,NNW,18.4,-,N/A,,Mostly Cloudy,330,2012-12-08 22:35:00
3:55 PM,37.4,21.2,52,29.69,10.0,NNW,21.9,26.5,N/A,,Mostly Cloudy,330,2012-12-08 22:55:00
4:15 PM,37.4,19.4,48,29.71,10.0,NNW,19.6,28.8,N/A,,Mostly Cloudy,330,2012-12-08 23:15:00
4:35 PM,37.4,17.6,45,29.71,10.0,NNW,19.6,25.3,N/A,,Overcast,330,2012-12-08 23:35:00
4:55 PM,37.4,17.6,45,29.72,10.0,NNW,20.7,28.8,N/A,,Mostly Cloudy,340,2012-12-08 23:55:00
5:15 PM,33.8,19.4,56,29.74,10.0,NNW,28.8,34.5,N/A,,Mostly Cloudy,340,2012-12-09 00:15:00
5:35 PM,32.0,17.6,55,29.76,10.0,NNW,27.6,34.5,N/A,,Overcast,330,2012-12-09 00:35:00
5:55 PM,32.0,15.8,51,29.77,10.0,NNW,31.1,42.6,N/A,,Overcast,330,2012-12-09 00:55:00
6:15 PM,30.2,12.2,47,29.78,10.0,NNW,33.4,44.9,N/A,,Mostly Cloudy,340,2012-12-09 01:15:00
6:55 PM,28.4,12.2,51,29.79,10.0,NNW,31.1,42.6,N/A,,Partly Cloudy,330,2012-12-09 01:55:00
7:15 PM,28.4,10.4,47,29.80,10.0,NW,32.2,43.7,N/A,,Clear,320,2012-12-09 02:15:00
7:35 PM,28.4,8.6,43,29.82,10.0,NW,34.5,40.3,N/A,,Clear,320,2012-12-09 02:35:00
7:55 PM,28.4,8.6,43,29.84,10.0,NW,31.1,46.0,N/A,,Clear,310,2012-12-09 02:55:00
8:15 PM,28.4,6.8,40,29.87,10.0,NNW,25.3,34.5,N/A,,Clear,330,2012-12-09 03:15:00
8:35 PM,28.4,3.2,34,29.89,10.0,NW,21.9,31.1,N/A,,Clear,320,2012-12-09 03:35:00
8:55 PM,28.4,1.4,31,29.89,10.0,NNW,17.3,28.8,N/A,,Clear,330,2012-12-09 03:55:00
9:15 PM,28.4,1.4,31,29.89,10.0,NNW,16.1,21.9,N/A,,Clear,340,2012-12-09 04:15:00
9:35 PM,28.4,1.4,31,29.89,10.0,NW,16.1,21.9,N/A,,Clear,320,2012-12-09 04:35:00
9:55 PM,28.4,1.4,31,29.92,10.0,WNW,23.0,27.6,N/A,,Scattered Clouds,300,2012-12-09 04:55:00
10:15 PM,28.4,1.4,31,29.92,10.0,NW,18.4,25.3,N/A,,Scattered Clouds,310,2012-12-09 05:15:00
10:35 PM,26.6,1.4,34,29.92,10.0,NW,15.0,21.9,N/A,,Partly Cloudy,320,2012-12-09 05:35:00
10:55 PM,26.6,1.4,34,29.93,10.0,NNW,9.2,16.1,N/A,,Clear,330,2012-12-09 05:55:00
11:15 PM,26.6,1.4,34,29.92,10.0,NNW,11.5,-,N/A,,Clear,340,2012-12-09 06:15:00
11:35 PM,26.6,1.4,34,29.93,10.0,NNW,8.1,-,N/A,,Partly Cloudy,340,2012-12-09 06:35:00
11:55 PM,26.6,1.4,34,29.93,10.0,NNW,15.0,19.6,N/A,,Scattered Clouds,330,2012-12-09 06:55:00